TAM2455 SBSP-SBFI

Flight info

Callsign TAM2455
Flight time N/A
Altitude 34000
Route ASETA UZ152 UPORU
Aircraft A20N/M-SDE2E3FGHIRWXY/LB1

Departure

Time 2026-05-07 20:58
Airport Congonhas–Deputado Freitas Nobre Airport (SBSP)

Arrival

Time N/A
Airport Cataratas International Airport (SBFI)
Time Latitude Longitude Altitude Speed Heading
2026-05-07 20:35 -23.62688 -46.65845 2600 ft 0 kts 237°
2026-05-07 20:50 -23.62681 -46.65833 2600 ft 2 kts 237°
2026-05-07 20:50 -23.62672 -46.65818 2600 ft 2 kts 233°
2026-05-07 20:51 -23.62659 -46.65807 2601 ft 2 kts 150°
2026-05-07 20:51 -23.62656 -46.65809 2601 ft 0 kts 138°
2026-05-07 20:51 -23.62656 -46.65808 2601 ft 0 kts 138°
2026-05-07 20:54 -23.62669 -46.65800 2601 ft 6 kts 148°
2026-05-07 20:54 -23.62733 -46.65756 2601 ft 16 kts 149°
2026-05-07 20:54 -23.62807 -46.65707 2601 ft 14 kts 147°
2026-05-07 20:55 -23.62846 -46.65649 2602 ft 4 kts 106°
2026-05-07 20:55 -23.62885 -46.65603 2602 ft 13 kts 147°
2026-05-07 20:55 -23.62982 -46.65535 2603 ft 19 kts 147°
2026-05-07 20:55 -23.63106 -46.65486 2602 ft 21 kts 149°
2026-05-07 20:56 -23.63255 -46.65381 2602 ft 29 kts 146°
2026-05-07 20:56 -23.63369 -46.65305 2602 ft 18 kts 149°
2026-05-07 20:56 -23.63428 -46.65238 2602 ft 0 kts 94°
2026-05-07 20:57 -23.63427 -46.65234 2602 ft 2 kts 84°
2026-05-07 20:57 -23.63413 -46.65199 2603 ft 8 kts 65°
2026-05-07 20:57 -23.63375 -46.65157 2605 ft 6 kts 350°
2026-05-07 20:57 -23.63287 -46.65218 2609 ft 41 kts 327°
2026-05-07 20:58 -23.62816 -46.65544 2608 ft 115 kts 327°
2026-05-07 20:58 -23.61967 -46.66135 2651 ft 168 kts 329°
2026-05-07 20:58 -23.60947 -46.66839 3341 ft 170 kts 329°
2026-05-07 20:58 -23.59986 -46.67510 4342 ft 160 kts 328°
2026-05-07 20:59 -23.59020 -46.68204 4935 ft 175 kts 323°
2026-05-07 20:59 -23.58311 -46.69359 5351 ft 200 kts 291°
2026-05-07 20:59 -23.58027 -46.70900 5788 ft 223 kts 281°
2026-05-07 20:59 -23.57875 -46.72675 6198 ft 245 kts 278°
2026-05-07 21:00 -23.57718 -46.74618 6667 ft 267 kts 279°
2026-05-07 21:00 -23.57519 -46.76664 7422 ft 274 kts 280°
2026-05-07 21:00 -23.57286 -46.78747 8323 ft 278 kts 281°
2026-05-07 21:00 -23.57032 -46.80855 9226 ft 281 kts 282°
2026-05-07 21:01 -23.56765 -46.82982 10151 ft 285 kts 282°
2026-05-07 21:01 -23.56480 -46.85186 10610 ft 305 kts 282°
2026-05-07 21:01 -23.56174 -46.87535 10873 ft 329 kts 281°
2026-05-07 21:01 -23.55847 -46.90073 11321 ft 344 kts 281°
2026-05-07 21:02 -23.55516 -46.92680 12032 ft 350 kts 281°
2026-05-07 21:02 -23.55180 -46.95330 12726 ft 356 kts 280°
2026-05-07 21:02 -23.54836 -46.98036 13388 ft 363 kts 280°
2026-05-07 21:02 -23.54485 -47.00783 14023 ft 369 kts 280°
2026-05-07 21:03 -23.54127 -47.03572 14735 ft 370 kts 280°
2026-05-07 21:03 -23.53774 -47.06330 15429 ft 372 kts 280°
2026-05-07 21:03 -23.53415 -47.09132 16112 ft 374 kts 280°
2026-05-07 21:03 -23.53053 -47.11953 16778 ft 377 kts 280°
2026-05-07 21:04 -23.52688 -47.14789 17439 ft 379 kts 280°
2026-05-07 21:04 -23.52321 -47.17644 18087 ft 382 kts 279°
2026-05-07 21:04 -23.51950 -47.20518 18673 ft 384 kts 279°
2026-05-07 21:04 -23.51578 -47.23403 19291 ft 385 kts 279°
2026-05-07 21:05 -23.51203 -47.26298 19912 ft 386 kts 279°
2026-05-07 21:05 -23.50827 -47.29198 20486 ft 388 kts 279°
2026-05-07 21:05 -23.50447 -47.32115 21081 ft 389 kts 278°
2026-05-07 21:05 -23.50067 -47.35037 21656 ft 391 kts 278°
2026-05-07 21:06 -23.49682 -47.37983 22230 ft 393 kts 278°
2026-05-07 21:06 -23.49301 -47.40907 22783 ft 395 kts 278°
2026-05-07 21:06 -23.48913 -47.43873 23368 ft 397 kts 278°
2026-05-07 21:06 -23.48523 -47.46850 23845 ft 399 kts 278°
2026-05-07 21:07 -23.48129 -47.49858 24282 ft 402 kts 277°
2026-05-07 21:07 -23.47733 -47.52882 24731 ft 404 kts 277°
2026-05-07 21:07 -23.47334 -47.55918 25181 ft 406 kts 277°
2026-05-07 21:07 -23.46934 -47.58967 25608 ft 408 kts 277°
2026-05-07 21:08 -23.46530 -47.62036 26038 ft 410 kts 277°
2026-05-07 21:08 -23.46123 -47.65120 26454 ft 413 kts 277°
2026-05-07 21:08 -23.45721 -47.68165 26855 ft 415 kts 277°
2026-05-07 21:08 -23.45301 -47.71342 27271 ft 417 kts 277°
2026-05-07 21:09 -23.44785 -47.74431 27672 ft 420 kts 282°
2026-05-07 21:09 -23.43955 -47.77500 28056 ft 424 kts 288°
2026-05-07 21:09 -23.42815 -47.80480 28432 ft 428 kts 294°
2026-05-07 21:09 -23.41418 -47.83359 28805 ft 431 kts 296°
2026-05-07 21:10 -23.39993 -47.86248 29186 ft 434 kts 295°
2026-05-07 21:10 -23.38567 -47.89157 29543 ft 436 kts 295°
2026-05-07 21:10 -23.37139 -47.92076 29933 ft 438 kts 295°
2026-05-07 21:10 -23.35696 -47.95023 30260 ft 441 kts 295°
2026-05-07 21:11 -23.34251 -47.97971 30599 ft 442 kts 295°
2026-05-07 21:11 -23.32812 -48.00901 30936 ft 444 kts 295°
2026-05-07 21:11 -23.30091 -48.06898 31775 ft 438 kts 285°
2026-05-07 21:12 -23.29374 -48.10094 32243 ft 431 kts 275°
2026-05-07 21:12 -23.29208 -48.12231 32577 ft 426 kts 269°
2026-05-07 21:12 -23.29401 -48.15418 33062 ft 420 kts 259°
2026-05-07 21:12 -23.29874 -48.18545 33547 ft 417 kts 259°
2026-05-07 21:13 -23.30486 -48.22661 33920 ft 414 kts 259°
2026-05-07 21:13 -23.30943 -48.25773 33956 ft 420 kts 259°
2026-05-07 21:13 -23.31715 -48.31046 33958 ft 424 kts 259°
2026-05-07 21:14 -23.32634 -48.37353 33956 ft 423 kts 259°
2026-05-07 21:14 -23.34050 -48.43557 33956 ft 422 kts 250°
2026-05-07 21:15 -23.36235 -48.49493 33960 ft 422 kts 248°